COOK73 UKDE-UNOO

Flight info

Callsign COOK73
Flight time N/A
Altitude 33000
Route ODNIV N604 NIKAD L68 LUZKA N604 ATLOG L749 BASAB T762 ABALI L158 PEMAG A231 MATIL MATIL6B
Aircraft C25C/M-SDE2E3FGHRWXY/LB1

Departure

Time N/A
Airport Zaporizhzhia International Airport (UKDE)

Arrival

Time 2026-04-26 18:30
Airport Omsk Central Airport (UNOO)
Time Latitude Longitude Altitude Speed Heading
2026-04-26 18:00 55.51281 69.69077 32918 ft 456 kts 104°
2026-04-26 18:00 55.50120 69.80138 32919 ft 461 kts 104°
2026-04-26 18:01 55.48941 69.91285 32916 ft 464 kts 104°
2026-04-26 18:01 55.47751 70.02427 32921 ft 467 kts 104°
2026-04-26 18:02 55.46940 70.09956 32918 ft 468 kts 104°
2026-04-26 18:02 55.45309 70.24968 32917 ft 469 kts 104°
2026-04-26 18:03 55.44069 70.36262 32913 ft 470 kts 104°
2026-04-26 18:03 55.42824 70.47496 32915 ft 471 kts 105°
2026-04-26 18:04 55.41560 70.58803 32914 ft 471 kts 105°
2026-04-26 18:05 55.39644 70.75770 32916 ft 471 kts 105°
2026-04-26 18:05 55.38352 70.87074 32912 ft 471 kts 105°
2026-04-26 18:06 55.37067 70.98237 32405 ft 461 kts 105°
2026-04-26 18:06 55.36438 71.03692 31815 ft 451 kts 105°
2026-04-26 18:06 55.35810 71.09049 31231 ft 444 kts 105°
2026-04-26 18:06 55.35094 71.14266 30657 ft 434 kts 112°
2026-04-26 18:07 55.34133 71.19249 30097 ft 429 kts 113°
2026-04-26 18:07 55.33218 71.24207 29484 ft 424 kts 113°
2026-04-26 18:07 55.32311 71.29096 28933 ft 418 kts 113°
2026-04-26 18:07 55.31707 71.32292 28569 ft 415 kts 113°
2026-04-26 18:08 55.30489 71.38677 27848 ft 410 kts 113°
2026-04-26 18:08 55.29605 71.43332 27377 ft 406 kts 113°
2026-04-26 18:08 55.28721 71.48014 26856 ft 403 kts 113°
2026-04-26 18:08 55.27832 71.52667 26329 ft 402 kts 114°
2026-04-26 18:09 55.26946 71.57304 25804 ft 400 kts 114°
2026-04-26 18:09 55.26059 71.61924 25278 ft 399 kts 113°
2026-04-26 18:09 55.25176 71.66531 24753 ft 399 kts 114°
2026-04-26 18:09 55.24291 71.71136 24230 ft 399 kts 113°
2026-04-26 18:10 55.23402 71.75735 23707 ft 399 kts 114°
2026-04-26 18:10 55.22513 71.80337 23137 ft 399 kts 113°
2026-04-26 18:10 55.21636 71.84863 22611 ft 397 kts 113°
2026-04-26 18:10 55.20751 71.89425 22088 ft 395 kts 113°
2026-04-26 18:11 55.19865 71.93960 21568 ft 394 kts 113°
2026-04-26 18:11 55.18982 71.98494 21049 ft 393 kts 113°
2026-04-26 18:11 55.18100 72.03003 20536 ft 392 kts 113°
2026-04-26 18:11 55.17215 72.07503 20019 ft 391 kts 113°
2026-04-26 18:12 55.16335 72.11995 19508 ft 390 kts 112°
2026-04-26 18:12 55.15452 72.16473 18996 ft 389 kts 112°
2026-04-26 18:12 55.14583 72.20881 18490 ft 388 kts 112°
2026-04-26 18:12 55.13699 72.25333 17946 ft 387 kts 112°
2026-04-26 18:13 55.12824 72.29752 17424 ft 383 kts 112°
2026-04-26 18:13 55.11954 72.34133 16924 ft 380 kts 112°
2026-04-26 18:13 55.11090 72.38472 16423 ft 377 kts 112°
2026-04-26 18:13 55.10518 72.41323 16100 ft 375 kts 112°
2026-04-26 18:14 55.09377 72.47042 15442 ft 371 kts 112°
2026-04-26 18:14 55.08526 72.51273 14954 ft 368 kts 112°
2026-04-26 18:14 55.07695 72.55421 14478 ft 366 kts 112°
2026-04-26 18:14 55.06869 72.59587 13995 ft 358 kts 109°
2026-04-26 18:15 55.06611 72.63790 13503 ft 344 kts 86°
2026-04-26 18:15 55.07005 72.67819 13078 ft 331 kts 77°
2026-04-26 18:15 55.07513 72.71666 12659 ft 320 kts 75°
2026-04-26 18:15 55.08049 72.75391 12261 ft 313 kts 75°
2026-04-26 18:16 55.08535 72.79060 11860 ft 308 kts 76°
2026-04-26 18:16 55.09465 72.86256 11060 ft 301 kts 75°
2026-04-26 18:16 55.09924 72.89750 10680 ft 298 kts 75°
2026-04-26 18:17 55.10387 72.93269 10298 ft 296 kts 75°
2026-04-26 18:17 55.10839 72.96773 9908 ft 295 kts 75°
2026-04-26 18:17 55.11294 73.00262 9497 ft 294 kts 75°
2026-04-26 18:17 55.11742 73.03728 9113 ft 291 kts 75°
2026-04-26 18:18 55.12187 73.07170 8733 ft 289 kts 75°
2026-04-26 18:18 55.12625 73.10591 8358 ft 288 kts 75°
2026-04-26 18:18 55.13069 73.13999 7977 ft 287 kts 75°
2026-04-26 18:18 55.13502 73.17402 7596 ft 286 kts 75°
2026-04-26 18:19 55.13937 73.20795 7223 ft 286 kts 75°
2026-04-26 18:19 55.14366 73.24188 6847 ft 286 kts 75°
2026-04-26 18:19 55.14798 73.27532 6468 ft 286 kts 75°
2026-04-26 18:19 55.15224 73.30921 6088 ft 285 kts 75°
2026-04-26 18:20 55.15647 73.34307 5706 ft 285 kts 77°
2026-04-26 18:20 55.15508 73.37742 5311 ft 287 kts 108°
2026-04-26 18:20 55.14847 73.40957 4963 ft 276 kts 109°
2026-04-26 18:20 55.14631 73.42023 4839 ft 274 kts 110°
2026-04-26 18:21 55.13517 73.47075 4258 ft 264 kts 112°
2026-04-26 18:21 55.12882 73.50062 3921 ft 261 kts 110°
2026-04-26 18:21 55.12272 73.52996 3623 ft 260 kts 110°
2026-04-26 18:21 55.11641 73.55935 3296 ft 258 kts 111°
2026-04-26 18:22 55.11009 73.58840 2967 ft 250 kts 114°
2026-04-26 18:22 55.10038 73.61236 2626 ft 238 kts 147°
2026-04-26 18:22 55.08631 73.62449 2509 ft 218 kts 174°
2026-04-26 18:22 55.07132 73.62444 2493 ft 214 kts 199°
2026-04-26 18:23 55.05723 73.61696 2490 ft 212 kts 204°
2026-04-26 18:23 55.04310 73.60947 2492 ft 212 kts 205°
2026-04-26 18:23 55.02929 73.60197 2497 ft 204 kts 204°
2026-04-26 18:23 55.01684 73.59541 2506 ft 173 kts 207°
2026-04-26 18:24 55.00768 73.58556 2496 ft 135 kts 233°
2026-04-26 18:24 55.00294 73.57471 2489 ft 100 kts 250°
2026-04-26 18:24 55.00060 73.56422 2479 ft 85 kts 262°
2026-04-26 18:24 54.99947 73.55448 2480 ft 84 kts 262°
2026-04-26 18:25 54.99813 73.54416 2429 ft 90 kts 263°
2026-04-26 18:25 54.99671 73.53361 2362 ft 88 kts 263°
2026-04-26 18:25 54.99539 73.52314 2288 ft 88 kts 261°
2026-04-26 18:25 54.99393 73.51264 2214 ft 88 kts 262°
2026-04-26 18:26 54.99256 73.50237 2136 ft 86 kts 263°
2026-04-26 18:26 54.99127 73.49235 2079 ft 87 kts 265°
2026-04-26 18:26 54.98984 73.48191 1983 ft 86 kts 263°
2026-04-26 18:26 54.98855 73.47191 1915 ft 83 kts 263°
2026-04-26 18:27 54.98728 73.46232 1897 ft 80 kts 265°
2026-04-26 18:27 54.98601 73.45247 1801 ft 87 kts 263°
2026-04-26 18:27 54.98461 73.44230 1676 ft 80 kts 264°
2026-04-26 18:27 54.98340 73.43323 1560 ft 74 kts 262°
2026-04-26 18:28 54.98222 73.42399 1456 ft 82 kts 261°
2026-04-26 18:28 54.98092 73.41426 1338 ft 84 kts 262°
2026-04-26 18:28 54.97956 73.40434 1203 ft 84 kts 261°
2026-04-26 18:28 54.97829 73.39423 1095 ft 89 kts 257°
2026-04-26 18:29 54.97684 73.38348 970 ft 94 kts 259°
2026-04-26 18:29 54.97538 73.37269 836 ft 89 kts 256°
2026-04-26 18:29 54.97402 73.36237 714 ft 85 kts 258°
2026-04-26 18:29 54.97256 73.35168 593 ft 93 kts 255°
2026-04-26 18:30 54.97125 73.34090 474 ft 89 kts 256°
2026-04-26 18:30 54.96973 73.33058 358 ft 89 kts 258°
2026-04-26 18:30 54.96866 73.32078 304 ft 70 kts 255°
2026-04-26 18:30 54.96801 73.31646 303 ft 27 kts 255°
2026-04-26 18:31 54.96755 73.31331 303 ft 27 kts 256°
2026-04-26 18:31 54.96714 73.31029 305 ft 25 kts 258°
2026-04-26 18:31 54.96677 73.30748 309 ft 23 kts 256°
2026-04-26 18:31 54.96641 73.30479 309 ft 23 kts 257°
2026-04-26 18:32 54.96612 73.30263 310 ft 11 kts 257°
2026-04-26 18:32 54.96594 73.30121 310 ft 13 kts 257°
2026-04-26 18:32 54.96525 73.30059 311 ft 14 kts 168°
2026-04-26 18:32 54.96425 73.30099 310 ft 16 kts 167°
2026-04-26 18:33 54.96313 73.30145 310 ft 17 kts 166°
2026-04-26 18:33 54.96205 73.30229 310 ft 18 kts 111°
2026-04-26 18:33 54.96227 73.30456 309 ft 20 kts 77°
2026-04-26 18:33 54.96260 73.30709 308 ft 22 kts 77°
2026-04-26 18:34 54.96288 73.30914 307 ft 15 kts 77°
2026-04-26 18:34 54.96315 73.31111 307 ft 18 kts 77°
2026-04-26 18:34 54.96345 73.31334 306 ft 20 kts 77°
2026-04-26 18:34 54.96365 73.31482 305 ft 10 kts 77°
2026-04-26 18:35 54.96368 73.31619 305 ft 13 kts 119°
2026-04-26 18:35 54.96318 73.31709 304 ft 10 kts 138°
2026-04-26 18:35 54.96293 73.31792 304 ft 6 kts 69°
2026-04-26 18:35 54.96298 73.31870 303 ft 6 kts 129°
2026-04-26 18:36 54.96283 73.31897 305 ft 0 kts 135°